| time (UTC) | temp F | wind direction | speed MPH | gust MPH | rain 1hr in | rain 24hr in | rain mn in | humidity % | barometer mb |
| 20260507191821 | 66 | 121 | 2.0 | 6.0 | 0.00 | 0.00 | 0.00 | 67 | 1012.6 |
| 20260507191622 | 66 | 121 | 3.0 | 7.0 | 0.00 | 0.00 | 0.00 | 66 | 1012.6 |
| 20260507191419 | 67 | 124 | 4.0 | 7.0 | 0.00 | 0.00 | 0.00 | 66 | 1012.6 |
| 20260507191218 | 67 | 133 | 3.0 | 7.0 | 0.00 | 0.00 | 0.00 | 66 | 1012.7 |
| 20260507191027 | 67 | 109 | 3.0 | 7.0 | 0.00 | 0.00 | 0.00 | 66 | 1012.6 |
| 20260507190816 | 67 | 111 | 2.0 | 7.0 | 0.00 | 0.00 | 0.00 | 66 | 1012.6 |
| 20260507190617 | 67 | 137 | 2.0 | 7.0 | 0.00 | 0.00 | 0.00 | 66 | 1012.5 |
| 20260507190417 | 67 | 137 | 3.0 | 7.0 | 0.00 | 0.00 | 0.00 | 65 | 1012.5 |
| 20260507190214 | 67 | 138 | 4.0 | 9.0 | 0.00 | 0.00 | 0.00 | 65 | 1012.5 |
| 20260507190036 | 67 | 127 | 4.0 | 10.0 | 0.00 | 0.00 | 0.00 | 65 | 1012.5 |
| 20260507185816 | 67 | 127 | 4.0 | 10.0 | 0.00 | 0.00 | 0.00 | 65 | 1012.5 |
| 20260507185614 | 67 | 123 | 5.0 | 10.0 | 0.00 | 0.00 | 0.00 | 65 | 1012.4 |
| 20260507185417 | 67 | 140 | 4.0 | 10.0 | 0.00 | 0.00 | 0.00 | 65 | 1012.4 |
| 20260507185216 | 67 | 117 | 5.0 | 10.0 | 0.00 | 0.00 | 0.00 | 65 | 1012.4 |
| 20260507185033 | 68 | 113 | 6.0 | 9.0 | 0.00 | 0.00 | 0.00 | 65 | 1012.4 |
| 20260507184819 | 68 | 114 | 2.0 | 9.0 | 0.00 | 0.00 | 0.00 | 65 | 1012.4 |
| 20260507184612 | 68 | 128 | 4.0 | 10.0 | 0.00 | 0.00 | 0.00 | 64 | 1012.3 |
| 20260507184414 | 68 | 114 | 3.0 | 10.0 | 0.00 | 0.00 | 0.00 | 64 | 1012.2 |
| 20260507184214 | 68 | 110 | 3.0 | 10.0 | 0.00 | 0.00 | 0.00 | 64 | 1012.3 |
| 20260507184020 | 68 | 116 | 4.0 | 10.0 | 0.00 | 0.00 | 0.00 | 64 | 1012.2 |
| 20260507183810 | 68 | 97 | 5.0 | 10.0 | 0.00 | 0.00 | 0.00 | 64 | 1012.1 |
| 20260507183611 | 68 | 131 | 5.0 | 10.0 | 0.00 | 0.00 | 0.00 | 63 | 1012.2 |
| 20260507183411 | 68 | 120 | 4.0 | 9.0 | 0.00 | 0.00 | 0.00 | 63 | 1012.2 |
| 20260507183213 | 68 | 111 | 5.0 | 9.0 | 0.00 | 0.00 | 0.00 | 63 | 1012.1 |
| 20260507183017 | 69 | 93 | 4.0 | 9.0 | 0.00 | 0.00 | 0.00 | 62 | 1012.1 |
| 20260507182812 | 69 | 103 | 4.0 | 7.0 | 0.00 | 0.00 | 0.00 | 62 | 1012.2 |
| 20260507182611 | 69 | 106 | 2.0 | 10.0 | 0.00 | 0.00 | 0.00 | 61 | 1012.1 |
| 20260507182412 | 69 | 161 | 3.0 | 12.0 | 0.00 | 0.00 | 0.00 | 61 | 1012.0 |
| 20260507182213 | 69 | 113 | 2.0 | 12.0 | 0.00 | 0.00 | 0.00 | 61 | 1012.0 |
| 20260507182020 | 69 | 83 | 4.0 | 12.0 | 0.00 | 0.00 | 0.00 | 61 | 1012.0 |
| 20260507181810 | 69 | 93 | 5.0 | 12.0 | 0.00 | 0.00 | 0.00 | 60 | 1012.0 |
| 20260507181611 | 69 | 87 | 4.0 | 12.0 | 0.00 | 0.00 | 0.00 | 60 | 1011.9 |
| 20260507181411 | 69 | 97 | 6.0 | 10.0 | 0.00 | 0.00 | 0.00 | 59 | 1011.9 |
| 20260507181214 | 70 | 114 | 5.0 | 10.0 | 0.00 | 0.00 | 0.00 | 59 | 1011.9 |
| 20260507181023 | 70 | 120 | 4.0 | 9.0 | 0.00 | 0.00 | 0.00 | 59 | 1011.9 |
| 20260507180812 | 70 | 118 | 3.0 | 9.0 | 0.00 | 0.00 | 0.00 | 59 | 1011.9 |
| 20260507180613 | 70 | 113 | 4.0 | 9.0 | 0.00 | 0.00 | 0.00 | 59 | 1011.9 |
| 20260507180410 | 70 | 120 | 3.0 | 9.0 | 0.00 | 0.00 | 0.00 | 58 | 1011.9 |
| 20260507180213 | 70 | 133 | 2.0 | 7.0 | 0.00 | 0.00 | 0.00 | 58 | 1011.9 |
| 20260507180035 | 70 | 134 | 2.0 | 9.0 | 0.00 | 0.00 | 0.00 | 58 | 1011.8 |
| 20260507175817 | 71 | 69 | 3.0 | 10.0 | 0.00 | 0.00 | 0.00 | 58 | 1011.8 |
| 20260507175614 | 71 | 87 | 2.0 | 10.0 | 0.00 | 0.00 | 0.00 | 58 | 1011.7 |
| 20260507175414 | 71 | 121 | 2.0 | 10.0 | 0.00 | 0.00 | 0.00 | 58 | 1011.7 |
| 20260507175213 | 71 | 128 | 2.0 | 10.0 | 0.00 | 0.00 | 0.00 | 58 | 1011.7 |
| 20260507175031 | 71 | 123 | 5.0 | 10.0 | 0.00 | 0.00 | 0.00 | 58 | 1011.7 |
| 20260507174815 | 71 | 109 | 4.0 | 7.0 | 0.00 | 0.00 | 0.00 | 58 | 1011.6 |
| 20260507174618 | 71 | 116 | 3.0 | 7.0 | 0.00 | 0.00 | 0.00 | 58 | 1011.6 |
| 20260507174414 | 71 | 80 | 4.0 | 7.0 | 0.00 | 0.00 | 0.00 | 57 | 1011.5 |
| 20260507174214 | 71 | 133 | 3.0 | 9.0 | 0.00 | 0.00 | 0.00 | 57 | 1011.6 |
| 20260507174028 | 71 | 145 | 0.0 | 10.0 | 0.00 | 0.00 | 0.00 | 57 | 1011.6 |
| 20260507173812 | 71 | 147 | 2.0 | 10.0 | 0.00 | 0.00 | 0.00 | 57 | 1011.5 |
| 20260507173614 | 71 | 120 | 3.0 | 10.0 | 0.00 | 0.00 | 0.00 | 56 | 1011.6 |
| 20260507173418 | 71 | 100 | 6.0 | 10.0 | 0.00 | 0.00 | 0.00 | 56 | 1011.5 |
| 20260507173215 | 71 | 114 | 4.0 | 10.0 | 0.00 | 0.00 | 0.00 | 56 | 1011.5 |
| 20260507173027 | 72 | 116 | 5.0 | 10.0 | 0.00 | 0.00 | 0.00 | 56 | 1011.5 |
| 20260507172813 | 72 | 128 | 2.0 | 7.0 | 0.00 | 0.00 | 0.00 | 56 | 1011.5 |
| 20260507172614 | 72 | 141 | 2.0 | 9.0 | 0.00 | 0.00 | 0.00 | 56 | 1011.5 |
| 20260507172412 | 72 | 103 | 2.0 | 9.0 | 0.00 | 0.00 | 0.00 | 55 | 1011.5 |
| 20260507172216 | 72 | 93 | 3.0 | 9.0 | 0.00 | 0.00 | 0.00 | 55 | 1011.5 |
| 20260507172023 | 72 | 140 | 2.0 | 9.0 | 0.00 | 0.00 | 0.00 | 55 | 1011.4 |
| 20260507171807 | 72 | 133 | 4.0 | 9.0 | 0.00 | 0.00 | 0.00 | 55 | 1011.4 |
| 20260507171608 | 72 | 152 | 2.0 | 9.0 | 0.00 | 0.00 | 0.00 | 55 | 1011.5 |
| 20260507171406 | 72 | 137 | 3.0 | 9.0 | 0.00 | 0.00 | 0.00 | 55 | 1011.3 |
| 20260507171206 | 72 | 121 | 4.0 | 9.0 | 0.00 | 0.00 | 0.00 | 54 | 1011.3 |
| 20260507171019 | 73 | 116 | 3.0 | 7.0 | 0.00 | 0.00 | 0.00 | 54 | 1011.4 |
| 20260507170806 | 73 | 133 | 2.0 | 7.0 | 0.00 | 0.00 | 0.00 | 53 | 1011.3 |
| 20260507170605 | 73 | 85 | 3.0 | 7.0 | 0.00 | 0.00 | 0.00 | 53 | 1011.3 |
| 20260507170404 | 73 | 96 | 2.0 | 6.0 | 0.00 | 0.00 | 0.00 | 52 | 1011.4 |
| 20260507170206 | 73 | 97 | 2.0 | 6.0 | 0.00 | 0.00 | 0.00 | 52 | 1011.4 |
| 20260507170032 | 73 | 123 | 3.0 | 6.0 | 0.00 | 0.00 | 0.00 | 51 | 1011.5 |
| 20260507165804 | 73 | 127 | 4.0 | 7.0 | 0.00 | 0.00 | 0.00 | 51 | 1011.4 |
| 20260507165603 | 73 | 113 | 1.0 | 7.0 | 0.00 | 0.00 | 0.00 | 52 | 1011.4 |
| 20260507165401 | 73 | 145 | 2.0 | 7.0 | 0.00 | 0.00 | 0.00 | 51 | 1011.3 |
| 20260507165201 | 73 | 157 | 3.0 | 7.0 | 0.00 | 0.00 | 0.00 | 51 | 1011.4 |
| 20260507165015 | 73 | 161 | 3.0 | 7.0 | 0.00 | 0.00 | 0.00 | 51 | 1011.4 |
| 20260507164807 | 73 | 111 | 5.0 | 7.0 | 0.00 | 0.00 | 0.00 | 51 | 1011.5 |
| 20260507164605 | 73 | 100 | 3.0 | 7.0 | 0.00 | 0.00 | 0.00 | 51 | 1011.4 |
| 20260507164403 | 73 | 130 | 2.0 | 10.0 | 0.00 | 0.00 | 0.00 | 52 | 1011.4 |
| 20260507164201 | 73 | 138 | 1.0 | 10.0 | 0.00 | 0.00 | 0.00 | 51 | 1011.4 |
| 20260507164001 | 73 | 138 | 1.0 | 10.0 | 0.00 | 0.00 | 0.00 | 51 | 1011.3 |
| 20260507163802 | 73 | 121 | 1.0 | 10.0 | 0.00 | 0.00 | 0.00 | 51 | 1011.3 |
| 20260507163603 | 73 | 111 | 5.0 | 10.0 | 0.00 | 0.00 | 0.00 | 51 | 1011.3 |
| 20260507163400 | 73 | 138 | 2.0 | 10.0 | 0.00 | 0.00 | 0.00 | 51 | 1011.3 |
| 20260507163201 | 73 | 138 | 2.0 | 10.0 | 0.00 | 0.00 | 0.00 | 51 | 1011.2 |
| 20260507162959 | 73 | 124 | 4.0 | 10.0 | 0.00 | 0.00 | 0.00 | 51 | 1011.2 |
| 20260507162802 | 73 | 109 | 3.0 | 9.0 | 0.00 | 0.00 | 0.00 | 51 | 1011.2 |
| 20260507162556 | 73 | 127 | 2.0 | 9.0 | 0.00 | 0.00 | 0.00 | 51 | 1011.2 |
| 20260507162356 | 73 | 145 | 4.0 | 9.0 | 0.00 | 0.00 | 0.00 | 51 | 1011.3 |
| 20260507162157 | 73 | 141 | 3.0 | 9.0 | 0.00 | 0.00 | 0.00 | 51 | 1011.2 |
| 20260507161955 | 73 | 131 | 3.0 | 10.0 | 0.00 | 0.00 | 0.00 | 51 | 1011.3 |
| 20260507161755 | 73 | 111 | 4.0 | 10.0 | 0.00 | 0.00 | 0.00 | 51 | 1011.3 |
| 20260507161554 | 73 | 124 | 4.0 | 10.0 | 0.00 | 0.00 | 0.00 | 51 | 1011.3 |
| 20260507161353 | 73 | 137 | 4.0 | 10.0 | 0.00 | 0.00 | 0.00 | 51 | 1011.3 |
| 20260507161154 | 73 | 118 | 5.0 | 10.0 | 0.00 | 0.00 | 0.00 | 51 | 1011.4 |
| 20260507160953 | 73 | 113 | 3.0 | 9.0 | 0.00 | 0.00 | 0.00 | 51 | 1011.3 |
| 20260507160752 | 73 | 133 | 2.0 | 11.0 | 0.00 | 0.00 | 0.00 | 52 | 1011.3 |
| 20260507160553 | 73 | 133 | 3.0 | 11.0 | 0.00 | 0.00 | 0.00 | 52 | 1011.3 |
| 20260507160350 | 73 | 142 | 3.0 | 11.0 | 0.00 | 0.00 | 0.00 | 52 | 1011.3 |
| 20260507160150 | 73 | 94 | 5.0 | 11.0 | 0.00 | 0.00 | 0.00 | 51 | 1011.2 |
| 20260507155949 | 73 | 141 | 5.0 | 11.0 | 0.00 | 0.00 | 0.00 | 51 | 1011.3 |
| 20260507155747 | 73 | 130 | 3.0 | 5.0 | 0.00 | 0.00 | 0.00 | 51 | 1011.4 |
| 20260507155551 | 73 | 134 | 1.0 | 5.0 | 0.00 | 0.00 | 0.00 | 52 | 1011.3 |
| 20260507155349 | 73 | 141 | 2.0 | 7.0 | 0.00 | 0.00 | 0.00 | 52 | 1011.3 |
| 20260507155147 | 73 | 96 | 2.0 | 10.0 | 0.00 | 0.00 | 0.00 | 51 | 1011.3 |
| 20260507154946 | 73 | 118 | 2.0 | 10.0 | 0.00 | 0.00 | 0.00 | 52 | 1011.4 |
| 20260507154748 | 73 | 154 | 2.0 | 10.0 | 0.00 | 0.00 | 0.00 | 52 | 1011.4 |
| 20260507154545 | 73 | 104 | 4.0 | 10.0 | 0.00 | 0.00 | 0.00 | 52 | 1011.4 |
| 20260507154345 | 73 | 102 | 3.0 | 12.0 | 0.00 | 0.00 | 0.00 | 52 | 1011.4 |
| 20260507154140 | 73 | 134 | 4.0 | 12.0 | 0.00 | 0.00 | 0.00 | 52 | 1011.4 |
| 20260507153941 | 73 | 104 | 5.0 | 12.0 | 0.00 | 0.00 | 0.00 | 52 | 1011.4 |
| 20260507153740 | 73 | 125 | 4.0 | 12.0 | 0.00 | 0.00 | 0.00 | 52 | 1011.4 |
| 20260507153538 | 73 | 61 | 6.0 | 12.0 | 0.00 | 0.00 | 0.00 | 52 | 1011.4 |
| 20260507153340 | 73 | 55 | 4.0 | 9.0 | 0.00 | 0.00 | 0.00 | 52 | 1011.4 |
| 20260507153133 | 73 | 72 | 3.0 | 9.0 | 0.00 | 0.00 | 0.00 | 52 | 1011.4 |
| 20260507152930 | 73 | 124 | 3.0 | 9.0 | 0.00 | 0.00 | 0.00 | 52 | 1011.4 |
| 20260507152729 | 73 | 107 | 4.0 | 11.0 | 0.00 | 0.00 | 0.00 | 52 | 1011.5 |
| 20260507152544 | 73 | 124 | 4.0 | 11.0 | 0.00 | 0.00 | 0.00 | 52 | 1011.5 |
| 20260507152329 | 73 | 110 | 3.0 | 11.0 | 0.00 | 0.00 | 0.00 | 52 | 1011.6 |
| 20260507152130 | 73 | 110 | 3.0 | 11.0 | 0.00 | 0.00 | 0.00 | 52 | 1011.6 |
| 20260507151929 | 73 | 134 | 6.0 | 11.0 | 0.00 | 0.00 | 0.00 | 52 | 1011.6 |
| 20260507151729 | 73 | 130 | 3.0 | 7.0 | 0.00 | 0.00 | 0.00 | 52 | 1011.6 |
| 20260507151527 | 73 | 182 | 3.0 | 7.0 | 0.00 | 0.00 | 0.00 | 51 | 1011.7 |
| 20260507151326 | 73 | 110 | 2.0 | 5.0 | 0.00 | 0.00 | 0.00 | 50 | 1011.7 |
| 20260507151125 | 73 | 111 | 1.0 | 5.0 | 0.00 | 0.00 | 0.00 | 50 | 1011.6 |
| 20260507150924 | 73 | 111 | 2.0 | 5.0 | 0.00 | 0.00 | 0.00 | 50 | 1011.7 |
| 20260507150725 | 73 | 111 | 2.0 | 5.0 | 0.00 | 0.00 | 0.00 | 50 | 1011.7 |
| 20260507150525 | 73 | 109 | 0.0 | 3.0 | 0.00 | 0.00 | 0.00 | 50 | 1011.7 |
| 20260507150323 | 73 | 109 | 1.0 | 3.0 | 0.00 | 0.00 | 0.00 | 50 | 1011.6 |
| 20260507150122 | 73 | 109 | 2.0 | 3.0 | 0.00 | 0.00 | 0.00 | 50 | 1011.6 |
| 20260507145921 | 73 | 109 | 2.0 | 3.0 | 0.00 | 0.00 | 0.00 | 49 | 1011.6 |
| 20260507145731 | 73 | 109 | 0.0 | 3.0 | 0.00 | 0.00 | 0.00 | 48 | 1011.6 |
| 20260507145540 | 73 | 109 | 0.0 | 5.0 | 0.00 | 0.00 | 0.00 | 47 | 1011.5 |
| 20260507145321 | 73 | 109 | 1.0 | 5.0 | 0.00 | 0.00 | 0.00 | 47 | 1011.6 |
| 20260507145124 | 73 | 109 | 0.0 | 5.0 | 0.00 | 0.00 | 0.00 | 47 | 1011.7 |
| 20260507144919 | 73 | 109 | 2.0 | 5.0 | 0.00 | 0.00 | 0.00 | 47 | 1011.7 |
| 20260507144719 | 73 | 109 | 3.0 | 5.0 | 0.00 | 0.00 | 0.00 | 46 | 1011.7 |
| 20260507144524 | 73 | 87 | 1.0 | 3.0 | 0.00 | 0.00 | 0.00 | 46 | 1011.7 |
| 20260507144317 | 73 | 87 | 1.0 | 3.0 | 0.00 | 0.00 | 0.00 | 46 | 1011.7 |
| 20260507144119 | 73 | 87 | 1.0 | 3.0 | 0.00 | 0.00 | 0.00 | 47 | 1011.7 |
| 20260507143919 | 73 | 85 | 2.0 | 6.0 | 0.00 | 0.00 | 0.00 | 46 | 1011.7 |
| 20260507143714 | 73 | 80 | 0.0 | 6.0 | 0.00 | 0.00 | 0.00 | 47 | 1011.6 |
| 20260507143519 | 73 | 80 | 1.0 | 6.0 | 0.00 | 0.00 | 0.00 | 47 | 1011.7 |
| 20260507143313 | 73 | 80 | 2.0 | 6.0 | 0.00 | 0.00 | 0.00 | 47 | 1011.7 |
| 20260507143115 | 74 | 49 | 3.0 | 15.0 | 0.00 | 0.00 | 0.00 | 46 | 1011.6 |
| 20260507142913 | 74 | 127 | 2.0 | 15.0 | 0.00 | 0.00 | 0.00 | 46 | 1011.6 |
| 20260507142714 | 74 | 133 | 3.0 | 15.0 | 0.00 | 0.00 | 0.00 | 46 | 1011.6 |
| 20260507142530 | 74 | 37 | 2.0 | 15.0 | 0.00 | 0.00 | 0.00 | 45 | 1011.7 |
| 20260507142315 | 74 | 116 | 9.0 | 15.0 | 0.00 | 0.00 | 0.00 | 44 | 1011.5 |
| 20260507142120 | 75 | 66 | 6.0 | 12.0 | 0.00 | 0.00 | 0.00 | 43 | 1011.5 |
| 20260507141914 | 75 | 34 | 5.0 | 9.0 | 0.00 | 0.00 | 0.00 | 43 | 1011.5 |
| 20260507141710 | 75 | 6 | 2.0 | 6.0 | 0.00 | 0.00 | 0.00 | 43 | 1011.5 |
| 20260507141521 | 75 | 39 | 3.0 | 6.0 | 0.00 | 0.00 | 0.00 | 43 | 1011.6 |
| 20260507141310 | 75 | 61 | 2.0 | 5.0 | 0.00 | 0.00 | 0.00 | 43 | 1011.6 |
| 20260507141113 | 76 | 78 | 3.0 | 5.0 | 0.00 | 0.00 | 0.00 | 43 | 1011.6 |
| 20260507140911 | 76 | 305 | 2.0 | 5.0 | 0.00 | 0.00 | 0.00 | 42 | 1011.5 |
| 20260507140714 | 76 | 252 | 2.0 | 5.0 | 0.00 | 0.00 | 0.00 | 42 | 1011.6 |
| 20260507140526 | 76 | 252 | 1.0 | 5.0 | 0.00 | 0.00 | 0.00 | 42 | 1011.6 |
| 20260507140311 | 76 | 252 | 2.0 | 5.0 | 0.00 | 0.00 | 0.00 | 43 | 1011.7 |
| 20260507140125 | 76 | 248 | 2.0 | 5.0 | 0.00 | 0.00 | 0.00 | 42 | 1011.7 |
| 20260507135907 | 76 | 248 | 3.0 | 5.0 | 0.00 | 0.00 | 0.00 | 42 | 1011.7 |
| 20260507135708 | 76 | 295 | 2.0 | 4.0 | 0.00 | 0.00 | 0.00 | 43 | 1011.6 |
| 20260507135529 | 76 | 251 | 1.0 | 4.0 | 0.00 | 0.00 | 0.00 | 43 | 1011.6 |
| 20260507135306 | 76 | 203 | 1.0 | 5.0 | 0.00 | 0.00 | 0.00 | 42 | 1011.6 |
| 20260507135108 | 75 | 197 | 1.0 | 5.0 | 0.00 | 0.00 | 0.00 | 42 | 1011.7 |
| 20260507134904 | 75 | 197 | 2.0 | 5.0 | 0.00 | 0.00 | 0.00 | 42 | 1011.7 |
| 20260507134703 | 75 | 188 | 2.0 | 5.0 | 0.00 | 0.00 | 0.00 | 42 | 1011.7 |
| 20260507134502 | 75 | 172 | 2.0 | 5.0 | 0.00 | 0.00 | 0.00 | 43 | 1011.7 |
| 20260507134309 | 75 | 152 | 2.0 | 5.0 | 0.00 | 0.00 | 0.00 | 43 | 1011.7 |
| 20260507134052 | 75 | 144 | 1.0 | 7.0 | 0.00 | 0.00 | 0.00 | 43 | 1011.7 |
| 20260507133851 | 75 | 157 | 2.0 | 7.0 | 0.00 | 0.00 | 0.00 | 43 | 1011.7 |
| 20260507133653 | 74 | 152 | 1.0 | 7.0 | 0.00 | 0.00 | 0.00 | 43 | 1011.7 |
| 20260507133450 | 74 | 192 | 2.0 | 7.0 | 0.00 | 0.00 | 0.00 | 42 | 1011.7 |
| 20260507133253 | 74 | 228 | 2.0 | 7.0 | 0.00 | 0.00 | 0.00 | 43 | 1011.7 |
| 20260507133049 | 74 | 255 | 1.0 | 5.0 | 0.00 | 0.00 | 0.00 | 43 | 1011.7 |
| 20260507132849 | 74 | 255 | 2.0 | 5.0 | 0.00 | 0.00 | 0.00 | 43 | 1011.7 |
| 20260507132649 | 74 | 186 | 2.0 | 5.0 | 0.00 | 0.00 | 0.00 | 43 | 1011.7 |
| 20260507132454 | 73 | 202 | 2.0 | 5.0 | 0.00 | 0.00 | 0.00 | 44 | 1011.8 |
| 20260507132239 | 73 | 197 | 2.0 | 5.0 | 0.00 | 0.00 | 0.00 | 44 | 1011.8 |
| 20260507132037 | 73 | 78 | 1.0 | 5.0 | 0.00 | 0.00 | 0.00 | 44 | 1011.8 |
| 20260507131837 | 73 | 73 | 2.0 | 5.0 | 0.00 | 0.00 | 0.00 | 43 | 1011.8 |
| 20260507131636 | 73 | 73 | 3.0 | 7.0 | 0.00 | 0.00 | 0.00 | 43 | 1011.8 |
| 20260507131236 | 73 | 80 | 3.0 | 9.0 | 0.00 | 0.00 | 0.00 | 44 | 1011.7 |
| 20260507131038 | 73 | 68 | 2.0 | 9.0 | 0.00 | 0.00 | 0.00 | 44 | 1011.8 |
| 20260507130836 | 73 | 16 | 4.0 | 9.0 | 0.00 | 0.00 | 0.00 | 43 | 1011.8 |
| 20260507130639 | 73 | 0 | 6.0 | 9.0 | 0.00 | 0.00 | 0.00 | 42 | 1011.8 |
| 20260507130437 | 73 | 3 | 5.0 | 7.0 | 0.00 | 0.00 | 0.00 | 43 | 1011.8 |
| 20260507130233 | 73 | 10 | 2.0 | 7.0 | 0.00 | 0.00 | 0.00 | 44 | 1011.8 |
| 20260507130043 | 73 | 58 | 2.0 | 7.0 | 0.00 | 0.00 | 0.00 | 45 | 1011.8 |
| 20260507125832 | 73 | 47 | 2.0 | 9.0 | 0.00 | 0.00 | 0.00 | 44 | 1011.8 |
| 20260507125634 | 73 | 65 | 5.0 | 9.0 | 0.00 | 0.00 | 0.00 | 43 | 1011.9 |
| 20260507125447 | 73 | 25 | 3.0 | 9.0 | 0.00 | 0.00 | 0.00 | 43 | 1011.9 |
| 20260507125233 | 73 | 45 | 4.0 | 9.0 | 0.00 | 0.00 | 0.00 | 42 | 1011.9 |
| 20260507125024 | 73 | 72 | 5.0 | 9.0 | 0.00 | 0.00 | 0.00 | 42 | 1011.9 |
| 20260507124819 | 74 | 75 | 3.0 | 6.0 | 0.00 | 0.00 | 0.00 | 43 | 1011.8 |
| 20260507124617 | 73 | 93 | 1.0 | 5.0 | 0.00 | 0.00 | 0.00 | 43 | 1011.9 |
| 20260507124416 | 73 | 55 | 2.0 | 7.0 | 0.00 | 0.00 | 0.00 | 44 | 1011.9 |
| 20260507124213 | 73 | 76 | 1.0 | 9.0 | 0.00 | 0.00 | 0.00 | 44 | 1011.9 |
| 20260507124018 | 73 | 341 | 2.0 | 9.0 | 0.00 | 0.00 | 0.00 | 44 | 1011.9 |
| 20260507123818 | 73 | 148 | 2.0 | 9.0 | 0.00 | 0.00 | 0.00 | 43 | 1012.0 |
| 20260507123612 | 73 | 134 | 4.0 | 9.0 | 0.00 | 0.00 | 0.00 | 43 | 1012.0 |
| 20260507123409 | 73 | 106 | 3.0 | 9.0 | 0.00 | 0.00 | 0.00 | 44 | 1012.0 |
| 20260507123209 | 73 | 80 | 2.0 | 7.0 | 0.00 | 0.00 | 0.00 | 44 | 1011.9 |
| 20260507123017 | 73 | 123 | 2.0 | 7.0 | 0.00 | 0.00 | 0.00 | 43 | 1012.0 |
| 20260507122809 | 73 | 148 | 3.0 | 7.0 | 0.00 | 0.00 | 0.00 | 43 | 1012.0 |
| 20260507122611 | 73 | 61 | 3.0 | 7.0 | 0.00 | 0.00 | 0.00 | 44 | 1012.1 |
| 20260507122410 | 73 | 272 | 2.0 | 4.0 | 0.00 | 0.00 | 0.00 | 44 | 1012.1 |
| 20260507122207 | 73 | 307 | 1.0 | 4.0 | 0.00 | 0.00 | 0.00 | 45 | 1012.1 |
| 20260507122022 | 73 | 307 | 2.0 | 5.0 | 0.00 | 0.00 | 0.00 | 44 | 1012.1 |
| 20260507121808 | 73 | 307 | 1.0 | 6.0 | 0.00 | 0.00 | 0.00 | 43 | 1012.1 |
| 20260507121607 | 73 | 307 | 2.0 | 6.0 | 0.00 | 0.00 | 0.00 | 43 | 1012.1 |
| 20260507121402 | 72 | 307 | 1.0 | 6.0 | 0.00 | 0.00 | 0.00 | 45 | 1012.1 |
| 20260507121202 | 72 | 306 | 2.0 | 6.0 | 0.00 | 0.00 | 0.00 | 45 | 1012.1 |
| 20260507121001 | 72 | 305 | 3.0 | 6.0 | 0.00 | 0.00 | 0.00 | 46 | 1012.1 |
| 20260507120802 | 72 | 327 | 1.0 | 5.0 | 0.00 | 0.01 | 0.00 | 46 | 1012.2 |
| 20260507120601 | 72 | 327 | 4.0 | 5.0 | 0.00 | 0.01 | 0.00 | 45 | 1012.2 |
| 20260507120406 | 71 | 296 | 3.0 | 5.0 | 0.00 | 0.01 | 0.00 | 46 | 1012.3 |
| 20260507120203 | 71 | 296 | 2.0 | 5.0 | 0.00 | 0.01 | 0.00 | 45 | 1012.2 |
| 20260507115803 | 71 | 303 | 1.0 | 6.0 | 0.00 | 0.01 | 0.00 | 45 | 1012.3 |
| 20260507115558 | 71 | 303 | 2.0 | 7.0 | 0.00 | 0.01 | 0.00 | 45 | 1012.3 |
| 20260507115357 | 71 | 333 | 2.0 | 7.0 | 0.00 | 0.01 | 0.00 | 46 | 1012.3 |
| 20260507115158 | 71 | 275 | 3.0 | 7.0 | 0.00 | 0.01 | 0.00 | 45 | 1012.3 |
| 20260507114954 | 71 | 292 | 4.0 | 7.0 | 0.00 | 0.01 | 0.00 | 46 | 1012.4 |
| 20260507114755 | 71 | 307 | 4.0 | 7.0 | 0.00 | 0.01 | 0.00 | 47 | 1012.4 |
| 20260507114545 | 71 | 289 | 2.0 | 7.0 | 0.00 | 0.01 | 0.00 | 46 | 1012.4 |
| 20260507114344 | 71 | 18 | 1.0 | 9.0 | 0.00 | 0.02 | 0.00 | 47 | 1012.4 |
| 20260507114142 | 71 | 18 | 1.0 | 9.0 | 0.00 | 0.02 | 0.00 | 49 | 1012.5 |
| 20260507113943 | 70 | 18 | 3.0 | 9.0 | 0.00 | 0.02 | 0.00 | 48 | 1012.5 |
| 20260507113740 | 70 | 23 | 3.0 | 10.0 | 0.00 | 0.02 | 0.00 | 48 | 1012.5 |
| 20260507113541 | 70 | 7 | 5.0 | 12.0 | 0.00 | 0.02 | 0.00 | 47 | 1012.5 |
| 20260507113339 | 70 | 348 | 6.0 | 12.0 | 0.00 | 0.02 | 0.00 | 48 | 1012.6 |
| 20260507113132 | 70 | 11 | 5.0 | 12.0 | 0.00 | 0.02 | 0.00 | 48 | 1012.5 |
| 20260507112932 | 70 | 0 | 5.0 | 12.0 | 0.00 | 0.02 | 0.00 | 47 | 1012.6 |
| 20260507112731 | 70 | 35 | 8.0 | 12.0 | 0.00 | 0.02 | 0.00 | 47 | 1012.5 |
| 20260507112533 | 71 | 354 | 5.0 | 10.0 | 0.00 | 0.02 | 0.00 | 48 | 1012.5 |
| 20260507112331 | 71 | 0 | 6.0 | 10.0 | 0.00 | 0.02 | 0.00 | 47 | 1012.6 |
| 20260507112131 | 71 | 0 | 5.0 | 10.0 | 0.00 | 0.02 | 0.00 | 47 | 1012.6 |
| 20260507111931 | 71 | 357 | 5.0 | 10.0 | 0.00 | 0.02 | 0.00 | 46 | 1012.6 |
| 20260507111730 | 71 | 350 | 4.0 | 10.0 | 0.00 | 0.02 | 0.00 | 47 | 1012.6 |
| 20260507111529 | 71 | 49 | 2.0 | 6.0 | 0.00 | 0.02 | 0.00 | 46 | 1012.6 |
| 20260507111330 | 71 | 52 | 2.0 | 6.0 | 0.00 | 0.02 | 0.00 | 46 | 1012.5 |
| 20260507111127 | 71 | 56 | 2.0 | 6.0 | 0.00 | 0.02 | 0.00 | 46 | 1012.7 |
| 20260507110931 | 71 | 28 | 1.0 | 6.0 | 0.00 | 0.02 | 0.00 | 46 | 1012.7 |
| 20260507110721 | 71 | 11 | 3.0 | 9.0 | 0.00 | 0.02 | 0.00 | 46 | 1012.7 |
| 20260507110524 | 71 | 285 | 3.0 | 9.0 | 0.00 | 0.02 | 0.00 | 45 | 1012.7 |
| 20260507110319 | 71 | 28 | 2.0 | 9.0 | 0.00 | 0.02 | 0.00 | 45 | 1012.7 |
| 20260507110118 | 71 | 312 | 3.0 | 9.0 | 0.00 | 0.02 | 0.00 | 45 | 1012.7 |
| 20260507105918 | 71 | 0 | 5.0 | 9.0 | 0.00 | 0.02 | 0.00 | 47 | 1012.7 |
| 20260507105717 | 71 | 31 | 2.0 | 7.0 | 0.00 | 0.02 | 0.00 | 48 | 1012.7 |
| 20260507105532 | 71 | 0 | 5.0 | 7.0 | 0.00 | 0.02 | 0.00 | 48 | 1012.8 |
| 20260507105323 | 71 | 0 | 3.0 | 7.0 | 0.00 | 0.02 | 0.00 | 48 | 1012.8 |
| 20260507105121 | 71 | 21 | 2.0 | 7.0 | 0.00 | 0.02 | 0.00 | 48 | 1012.8 |
| 20260507104933 | 71 | 48 | 5.0 | 7.0 | 0.00 | 0.02 | 0.00 | 47 | 1012.8 |
| 20260507104716 | 70 | 49 | 1.0 | 9.0 | 0.00 | 0.02 | 0.00 | 49 | 1012.8 |
| 20260507104530 | 70 | 47 | 1.0 | 9.0 | 0.00 | 0.02 | 0.00 | 49 | 1012.8 |
| 20260507104314 | 70 | 38 | 3.0 | 9.0 | 0.00 | 0.02 | 0.00 | 49 | 1012.9 |
| 20260507104113 | 70 | 85 | 2.0 | 9.0 | 0.00 | 0.02 | 0.00 | 49 | 1012.8 |
| 20260507103913 | 70 | 66 | 5.0 | 9.0 | 0.00 | 0.02 | 0.00 | 49 | 1012.8 |
| 20260507103711 | 70 | 54 | 3.0 | 7.0 | 0.00 | 0.02 | 0.00 | 49 | 1012.8 |
| 20260507103523 | 70 | 135 | 3.0 | 7.0 | 0.00 | 0.02 | 0.00 | 49 | 1012.9 |
| 20260507103314 | 69 | 55 | 5.0 | 7.0 | 0.00 | 0.02 | 0.00 | 49 | 1012.8 |
| 20260507103110 | 69 | 48 | 4.0 | 6.0 | 0.00 | 0.02 | 0.00 | 50 | 1012.9 |
| 20260507102913 | 69 | 45 | 3.0 | 7.0 | 0.00 | 0.02 | 0.00 | 51 | 1012.9 |
| 20260507102710 | 69 | 3 | 1.0 | 7.0 | 0.00 | 0.02 | 0.00 | 51 | 1012.9 |
| 20260507102521 | 69 | 1 | 2.0 | 7.0 | 0.00 | 0.02 | 0.00 | 52 | 1013.0 |
| 20260507102315 | 69 | 0 | 4.0 | 7.0 | 0.00 | 0.02 | 0.00 | 49 | 1012.9 |
| 20260507102111 | 69 | 272 | 5.0 | 7.0 | 0.00 | 0.02 | 0.00 | 49 | 1013.1 |
| 20260507101908 | 69 | 286 | 5.0 | 7.0 | 0.00 | 0.02 | 0.00 | 48 | 1013.1 |
| 20260507101707 | 69 | 306 | 3.0 | 7.0 | 0.00 | 0.02 | 0.00 | 48 | 1013.1 |
| 20260507101507 | 69 | 282 | 3.0 | 7.0 | 0.00 | 0.02 | 0.00 | 48 | 1013.1 |
| 20260507101301 | 69 | 300 | 4.0 | 7.0 | 0.00 | 0.02 | 0.00 | 47 | 1013.1 |
| 20260507101102 | 70 | 288 | 5.0 | 7.0 | 0.00 | 0.02 | 0.00 | 47 | 1013.2 |
| 20260507100901 | 70 | 354 | 2.0 | 6.0 | 0.00 | 0.02 | 0.00 | 48 | 1013.0 |
| 20260507100701 | 70 | 0 | 3.0 | 6.0 | 0.00 | 0.02 | 0.00 | 48 | 1013.1 |
| 20260507100514 | 70 | 1 | 4.0 | 6.0 | 0.00 | 0.02 | 0.00 | 48 | 1013.1 |
| 20260507100300 | 70 | 42 | 2.0 | 5.0 | 0.00 | 0.02 | 0.00 | 48 | 1013.1 |
| 20260507100109 | 70 | 123 | 3.0 | 6.0 | 0.00 | 0.02 | 0.00 | 48 | 1013.1 |
| 20260507095904 | 70 | 120 | 2.0 | 6.0 | 0.00 | 0.02 | 0.00 | 48 | 1013.2 |
| 20260507095701 | 69 | 120 | 2.0 | 6.0 | 0.00 | 0.02 | 0.00 | 49 | 1013.1 |
| 20260507095501 | 69 | 118 | 2.0 | 6.0 | 0.00 | 0.02 | 0.00 | 49 | 1013.2 |
| 20260507095256 | 69 | 85 | 5.0 | 6.0 | 0.00 | 0.02 | 0.00 | 49 | 1013.1 |
| 20260507095057 | 69 | 45 | 2.0 | 5.0 | 0.00 | 0.02 | 0.00 | 51 | 1013.2 |
| 20260507094854 | 69 | 45 | 2.0 | 4.0 | 0.00 | 0.02 | 0.00 | 52 | 1013.2 |
| 20260507094654 | 69 | 45 | 2.0 | 4.0 | 0.00 | 0.02 | 0.00 | 51 | 1013.1 |
| 20260507094455 | 69 | 45 | 1.0 | 5.0 | 0.00 | 0.02 | 0.00 | 51 | 1013.2 |
| 20260507094254 | 69 | 45 | 1.0 | 5.0 | 0.00 | 0.02 | 0.00 | 50 | 1013.3 |
| 20260507094051 | 69 | 45 | 3.0 | 5.0 | 0.00 | 0.02 | 0.00 | 51 | 1013.2 |
| 20260507093850 | 69 | 76 | 2.0 | 6.0 | 0.00 | 0.02 | 0.00 | 52 | 1013.2 |
| 20260507093649 | 68 | 121 | 3.0 | 6.0 | 0.00 | 0.02 | 0.00 | 52 | 1013.3 |
| 20260507093451 | 68 | 82 | 1.0 | 6.0 | 0.00 | 0.02 | 0.00 | 53 | 1013.2 |
| 20260507093250 | 68 | 116 | 2.0 | 7.0 | 0.00 | 0.02 | 0.00 | 53 | 1013.2 |
| 20260507093048 | 68 | 68 | 2.0 | 7.0 | 0.00 | 0.02 | 0.00 | 53 | 1013.2 |
| 20260507092849 | 68 | 80 | 3.0 | 7.0 | 0.00 | 0.02 | 0.00 | 52 | 1013.2 |
| 20260507092648 | 68 | 66 | 3.0 | 7.0 | 0.00 | 0.02 | 0.00 | 53 | 1013.2 |
| 20260507092447 | 68 | 52 | 4.0 | 9.0 | 0.00 | 0.02 | 0.00 | 52 | 1013.2 |
| 20260507092241 | 68 | 59 | 5.0 | 9.0 | 0.00 | 0.02 | 0.00 | 53 | 1013.2 |
| 20260507092038 | 68 | 56 | 2.0 | 9.0 | 0.00 | 0.02 | 0.00 | 53 | 1013.1 |
| 20260507091840 | 68 | 117 | 2.0 | 9.0 | 0.00 | 0.02 | 0.00 | 52 | 1013.2 |
| 20260507091639 | 68 | 103 | 3.0 | 9.0 | 0.00 | 0.02 | 0.00 | 53 | 1013.2 |
| 20260507091437 | 67 | 10 | 1.0 | 5.0 | 0.00 | 0.02 | 0.00 | 51 | 1013.3 |
| 20260507091240 | 67 | 17 | 2.0 | 5.0 | 0.00 | 0.02 | 0.00 | 51 | 1013.2 |
| 20260507091037 | 67 | 79 | 1.0 | 5.0 | 0.00 | 0.02 | 0.00 | 51 | 1013.2 |
| 20260507090838 | 67 | 106 | 2.0 | 6.0 | 0.00 | 0.02 | 0.00 | 51 | 1013.3 |
| 20260507090636 | 67 | 51 | 3.0 | 7.0 | 0.00 | 0.02 | 0.00 | 52 | 1013.2 |
| 20260507090443 | 67 | 87 | 2.0 | 7.0 | 0.00 | 0.02 | 0.00 | 51 | 1013.2 |
| 20260507090239 | 67 | 87 | 2.0 | 7.0 | 0.00 | 0.02 | 0.00 | 53 | 1013.2 |
| 20260507090053 | 67 | 76 | 4.0 | 7.0 | 0.00 | 0.02 | 0.00 | 53 | 1013.2 |
| 20260507085836 | 67 | 71 | 5.0 | 7.0 | 0.00 | 0.02 | 0.00 | 53 | 1013.3 |
| 20260507085633 | 67 | 62 | 2.0 | 6.0 | 0.00 | 0.02 | 0.00 | 53 | 1013.2 |
| 20260507085433 | 67 | 290 | 3.0 | 5.0 | 0.00 | 0.02 | 0.00 | 52 | 1013.2 |
| 20260507085232 | 67 | 286 | 4.0 | 5.0 | 0.00 | 0.02 | 0.00 | 52 | 1013.2 |
| 20260507085043 | 67 | 324 | 4.0 | 5.0 | 0.00 | 0.02 | 0.00 | 52 | 1013.2 |
| 20260507084829 | 67 | 331 | 2.0 | 5.0 | 0.00 | 0.02 | 0.00 | 53 | 1013.2 |
| 20260507084629 | 67 | 0 | 1.0 | 5.0 | 0.00 | 0.02 | 0.00 | 54 | 1013.2 |
| 20260507084429 | 67 | 0 | 3.0 | 5.0 | 0.00 | 0.02 | 0.00 | 54 | 1013.1 |
| 20260507084229 | 67 | 30 | 3.0 | 5.0 | 0.00 | 0.02 | 0.00 | 53 | 1013.1 |
| 20260507084035 | 67 | 47 | 2.0 | 5.0 | 0.00 | 0.02 | 0.00 | 53 | 1013.1 |
| 20260507083827 | 67 | 75 | 3.0 | 5.0 | 0.00 | 0.02 | 0.00 | 52 | 1013.1 |
| 20260507083626 | 67 | 63 | 3.0 | 5.0 | 0.00 | 0.02 | 0.00 | 53 | 1013.1 |
| 20260507083425 | 67 | 76 | 2.0 | 5.0 | 0.00 | 0.02 | 0.00 | 54 | 1013.1 |
| 20260507083226 | 67 | 76 | 2.0 | 5.0 | 0.00 | 0.02 | 0.00 | 54 | 1013.0 |
| 20260507083041 | 67 | 125 | 0.0 | 6.0 | 0.00 | 0.03 | 0.00 | 55 | 1013.2 |
| 20260507082825 | 66 | 125 | 2.0 | 6.0 | 0.00 | 0.03 | 0.00 | 56 | 1013.1 |
| 20260507082621 | 66 | 172 | 2.0 | 6.0 | 0.00 | 0.03 | 0.00 | 57 | 1013.1 |
| 20260507082421 | 65 | 71 | 2.0 | 6.0 | 0.00 | 0.03 | 0.00 | 56 | 1013.1 |
| 20260507082220 | 65 | 72 | 4.0 | 6.0 | 0.00 | 0.03 | 0.00 | 56 | 1013.0 |
| 20260507082036 | 65 | 61 | 2.0 | 5.0 | 0.00 | 0.04 | 0.00 | 57 | 1013.0 |
| 20260507081818 | 65 | 214 | 0.0 | 5.0 | 0.00 | 0.04 | 0.00 | 56 | 1013.1 |
| 20260507081614 | 65 | 214 | 2.0 | 5.0 | 0.00 | 0.04 | 0.00 | 56 | 1013.1 |
| 20260507081425 | 65 | 214 | 2.0 | 5.0 | 0.00 | 0.04 | 0.00 | 58 | 1013.0 |
| 20260507081216 | 64 | 214 | 4.0 | 6.0 | 0.00 | 0.04 | 0.00 | 59 | 1013.0 |
| 20260507081038 | 64 | 219 | 2.0 | 6.0 | 0.00 | 0.05 | 0.00 | 60 | 1013.0 |
| 20260507080812 | 64 | 219 | 2.0 | 6.0 | 0.00 | 0.05 | 0.00 | 60 | 1013.0 |
| 20260507080615 | 64 | 219 | 3.0 | 6.0 | 0.00 | 0.05 | 0.00 | 59 | 1013.0 |
| 20260507080418 | 64 | 219 | 4.0 | 7.0 | 0.00 | 0.05 | 0.00 | 60 | 1013.0 |
| 20260507080212 | 64 | 204 | 3.0 | 7.0 | 0.00 | 0.05 | 0.00 | 60 | 1013.0 |
| 20260507080042 | 64 | 206 | 3.0 | 7.0 | 0.00 | 0.05 | 0.00 | 60 | 1013.0 |
| 20260507075810 | 64 | 202 | 3.0 | 7.0 | 0.00 | 0.05 | 0.00 | 60 | 1013.1 |
| 20260507075610 | 64 | 210 | 6.0 | 7.0 | 0.00 | 0.05 | 0.00 | 60 | 1013.0 |
| 20260507075409 | 64 | 214 | 3.0 | 6.0 | 0.00 | 0.05 | 0.00 | 61 | 1013.0 |
| 20260507075209 | 63 | 214 | 2.0 | 6.0 | 0.00 | 0.05 | 0.00 | 60 | 1012.9 |
| 20260507075016 | 63 | 203 | 4.0 | 6.0 | 0.00 | 0.05 | 0.00 | 60 | 1012.9 |
| 20260507074809 | 63 | 220 | 3.0 | 6.0 | 0.00 | 0.06 | 0.00 | 62 | 1012.9 |
| 20260507074609 | 63 | 200 | 4.0 | 6.0 | 0.00 | 0.06 | 0.00 | 61 | 1012.8 |
| 20260507074420 | 63 | 189 | 4.0 | 6.0 | 0.00 | 0.06 | 0.00 | 62 | 1012.9 |
| 20260507074205 | 63 | 206 | 3.0 | 6.0 | 0.00 | 0.06 | 0.00 | 62 | 1012.9 |
| 20260507074014 | 63 | 196 | 3.0 | 6.0 | 0.00 | 0.06 | 0.00 | 62 | 1012.9 |
| 20260507073805 | 63 | 226 | 3.0 | 7.0 | 0.00 | 0.06 | 0.00 | 63 | 1012.9 |
| 20260507073604 | 63 | 202 | 3.0 | 7.0 | 0.00 | 0.06 | 0.00 | 63 | 1012.9 |
| 20260507073403 | 63 | 221 | 3.0 | 9.0 | 0.00 | 0.06 | 0.00 | 63 | 1012.8 |
| 20260507073202 | 62 | 195 | 3.0 | 9.0 | 0.00 | 0.06 | 0.00 | 64 | 1012.9 |
| 20260507073005 | 62 | 224 | 3.0 | 9.0 | 0.00 | 0.06 | 0.00 | 64 | 1012.9 |
| 20260507072805 | 62 | 182 | 3.0 | 9.0 | 0.00 | 0.07 | 0.00 | 64 | 1012.8 |
| 20260507072601 | 62 | 193 | 4.0 | 9.0 | 0.00 | 0.07 | 0.00 | 64 | 1012.8 |
| 20260507072402 | 62 | 202 | 4.0 | 9.0 | 0.00 | 0.08 | 0.00 | 64 | 1012.8 |
| 20260507072201 | 62 | 219 | 4.0 | 9.0 | 0.00 | 0.08 | 0.00 | 64 | 1012.9 |
| 20260507072012 | 62 | 186 | 4.0 | 9.0 | 0.00 | 0.08 | 0.00 | 64 | 1012.9 |
| 20260507071808 | 62 | 182 | 4.0 | 9.0 | 0.00 | 0.09 | 0.00 | 64 | 1012.8 |
| 20260507071605 | 62 | 207 | 4.0 | 7.0 | 0.00 | 0.09 | 0.00 | 65 | 1012.8 |
| 20260507071417 | 62 | 203 | 3.0 | 10.0 | 0.00 | 0.09 | 0.00 | 65 | 1012.8 |
| 20260507071201 | 62 | 216 | 3.0 | 10.0 | 0.00 | 0.09 | 0.00 | 65 | 1012.8 |
| 20260507071017 | 62 | 164 | 3.0 | 10.0 | 0.00 | 0.10 | 0.00 | 65 | 1012.8 |
| 20260507070803 | 62 | 212 | 4.0 | 10.0 | 0.00 | 0.10 | 0.00 | 65 | 1012.7 |
| 20260507070601 | 62 | 226 | 6.0 | 10.0 | 0.00 | 0.10 | 0.00 | 64 | 1012.7 |
| 20260507070359 | 62 | 172 | 6.0 | 10.0 | 0.00 | 0.10 | 0.00 | 65 | 1012.6 |
| 20260507070158 | 62 | 197 | 4.0 | 9.0 | 0.00 | 0.10 | 0.00 | 65 | 1012.7 |
| 20260507065959 | 61 | 216 | 5.0 | 9.0 | 0.00 | 0.10 | 0.00 | 65 | 1012.7 |
| 20260507065754 | 61 | 226 | 4.0 | 6.0 | 0.00 | 0.11 | 0.00 | 65 | 1012.7 |
| 20260507065555 | 61 | 203 | 3.0 | 6.0 | 0.00 | 0.11 | 0.00 | 66 | 1012.7 |
| 20260507065355 | 61 | 224 | 4.0 | 6.0 | 0.00 | 0.11 | 0.00 | 65 | 1012.6 |
| 20260507065153 | 61 | 213 | 3.0 | 11.0 | 0.00 | 0.11 | 0.00 | 66 | 1012.6 |
| 20260507064955 | 61 | 212 | 3.0 | 11.0 | 0.00 | 0.11 | 0.00 | 66 | 1012.6 |
| 20260507064752 | 61 | 207 | 3.0 | 11.0 | 0.00 | 0.11 | 0.00 | 66 | 1012.7 |
| 20260507064551 | 60 | 204 | 3.0 | 11.0 | 0.00 | 0.11 | 0.00 | 66 | 1012.7 |
| 20260507064357 | 60 | 202 | 6.0 | 11.0 | 0.00 | 0.11 | 0.00 | 66 | 1012.7 |
| 20260507064151 | 60 | 223 | 4.0 | 10.0 | 0.00 | 0.11 | 0.00 | 66 | 1012.7 |
| 20260507063950 | 60 | 220 | 3.0 | 10.0 | 0.00 | 0.11 | 0.00 | 66 | 1012.6 |
| 20260507063750 | 60 | 219 | 5.0 | 10.0 | 0.00 | 0.11 | 0.00 | 66 | 1012.6 |
| 20260507063547 | 60 | 223 | 3.0 | 11.0 | 0.00 | 0.12 | 0.00 | 66 | 1012.6 |
| 20260507063348 | 60 | 204 | 5.0 | 11.0 | 0.00 | 0.12 | 0.00 | 66 | 1012.6 |
| 20260507063146 | 60 | 210 | 6.0 | 11.0 | 0.00 | 0.12 | 0.00 | 66 | 1012.6 |
| 20260507062946 | 60 | 188 | 6.0 | 11.0 | 0.00 | 0.12 | 0.00 | 66 | 1012.6 |
| 20260507062751 | 60 | 226 | 4.0 | 11.0 | 0.00 | 0.12 | 0.00 | 67 | 1012.5 |
| 20260507062548 | 60 | 189 | 4.0 | 10.0 | 0.00 | 0.13 | 0.00 | 67 | 1012.5 |
| 20260507062344 | 60 | 227 | 2.0 | 10.0 | 0.00 | 0.13 | 0.00 | 67 | 1012.5 |
| 20260507062145 | 60 | 231 | 3.0 | 10.0 | 0.00 | 0.13 | 0.00 | 68 | 1012.4 |
| 20260507061945 | 59 | 230 | 4.0 | 10.0 | 0.00 | 0.14 | 0.00 | 68 | 1012.5 |
| 20260507061743 | 59 | 244 | 4.0 | 10.0 | 0.00 | 0.15 | 0.00 | 67 | 1012.5 |
| 20260507061542 | 59 | 200 | 5.0 | 10.0 | 0.00 | 0.15 | 0.00 | 68 | 1012.5 |
| 20260507061351 | 59 | 192 | 4.0 | 9.0 | 0.00 | 0.16 | 0.00 | 67 | 1012.5 |
| 20260507061142 | 59 | 154 | 4.0 | 9.0 | 0.00 | 0.16 | 0.00 | 67 | 1012.4 |
| 20260507060941 | 59 | 202 | 4.0 | 9.0 | 0.00 | 0.17 | 0.00 | 67 | 1012.4 |
| 20260507060742 | 59 | 206 | 2.0 | 6.0 | 0.00 | 0.17 | 0.00 | 68 | 1012.5 |
| 20260507060540 | 59 | 221 | 3.0 | 6.0 | 0.00 | 0.17 | 0.00 | 68 | 1012.4 |
| 20260507060344 | 59 | 200 | 3.0 | 5.0 | 0.00 | 0.17 | 0.00 | 68 | 1012.3 |
| 20260507060138 | 59 | 200 | 3.0 | 5.0 | 0.00 | 0.18 | 0.00 | 68 | 1012.3 |
| 20260507055936 | 59 | 212 | 3.0 | 5.0 | 0.00 | 0.18 | 0.00 | 68 | 1012.3 |
| 20260507055738 | 59 | 209 | 3.0 | 5.0 | 0.00 | 0.18 | 0.00 | 69 | 1012.3 |
| 20260507055537 | 59 | 214 | 3.0 | 5.0 | 0.00 | 0.18 | 0.00 | 70 | 1012.2 |
| 20260507055340 | 58 | 213 | 2.0 | 4.0 | 0.00 | 0.19 | 0.00 | 70 | 1012.2 |
| 20260507055136 | 58 | 206 | 2.0 | 6.0 | 0.00 | 0.20 | 0.00 | 71 | 1012.2 |
| 20260507054934 | 58 | 206 | 2.0 | 7.0 | 0.00 | 0.20 | 0.00 | 71 | 1012.1 |
| 20260507054733 | 58 | 203 | 2.0 | 7.0 | 0.00 | 0.20 | 0.00 | 71 | 1012.2 |
| 20260507054533 | 58 | 195 | 3.0 | 7.0 | 0.00 | 0.21 | 0.00 | 71 | 1012.2 |
| 20260507054347 | 58 | 206 | 3.0 | 7.0 | 0.00 | 0.22 | 0.00 | 71 | 1012.2 |
| 20260507054132 | 58 | 202 | 4.0 | 7.0 | 0.00 | 0.23 | 0.00 | 71 | 1012.1 |
| 20260507053938 | 58 | 203 | 3.0 | 6.0 | 0.00 | 0.23 | 0.00 | 71 | 1012.2 |
| 20260507053735 | 58 | 217 | 3.0 | 6.0 | 0.00 | 0.24 | 0.00 | 71 | 1012.1 |
| 20260507053533 | 58 | 214 | 4.0 | 6.0 | 0.00 | 0.24 | 0.00 | 71 | 1012.1 |
| 20260507053334 | 58 | 197 | 2.0 | 5.0 | 0.00 | 0.24 | 0.00 | 71 | 1012.1 |
| 20260507053130 | 58 | 189 | 2.0 | 3.0 | 0.00 | 0.24 | 0.00 | 72 | 1012.1 |
| 20260507052930 | 58 | 189 | 2.0 | 3.0 | 0.00 | 0.25 | 0.00 | 73 | 1012.0 |
| 20260507052730 | 57 | 189 | 1.0 | 3.0 | 0.00 | 0.25 | 0.00 | 74 | 1012.0 |
| 20260507052529 | 57 | 189 | 0.0 | 3.0 | 0.00 | 0.25 | 0.00 | 74 | 1012.0 |
| 20260507052329 | 57 | 189 | 1.0 | 3.0 | 0.00 | 0.25 | 0.00 | 75 | 1012.0 |
| 20260507052131 | 56 | 189 | 1.0 | 4.0 | 0.00 | 0.25 | 0.00 | 75 | 1012.0 |
| 20260507051923 | 56 | 189 | 1.0 | 5.0 | 0.00 | 0.25 | 0.00 | 75 | 1011.9 |
| 20260507051723 | 56 | 189 | 1.0 | 5.0 | 0.00 | 0.26 | 0.00 | 76 | 1011.8 |
| 20260507051523 | 56 | 189 | 2.0 | 5.0 | 0.00 | 0.26 | 0.00 | 76 | 1011.9 |
| 20260507051332 | 56 | 189 | 2.0 | 5.0 | 0.00 | 0.26 | 0.00 | 77 | 1011.9 |
| 20260507051120 | 56 | 195 | 2.0 | 5.0 | 0.00 | 0.26 | 0.00 | 77 | 1011.9 |
| 20260507050920 | 55 | 209 | 3.0 | 5.0 | 0.00 | 0.27 | 0.00 | 77 | 1011.9 |
| 20260507050717 | 55 | 199 | 3.0 | 5.0 | 0.00 | 0.27 | 0.00 | 78 | 1011.8 |
| 20260507050523 | 55 | 196 | 3.0 | 5.0 | 0.00 | 0.27 | 0.00 | 78 | 1011.9 |
| 20260507050316 | 55 | 204 | 2.0 | 5.0 | 0.00 | 0.27 | 0.00 | 80 | 1011.9 |
| 20260507050111 | 55 | 202 | 2.0 | 4.0 | 0.00 | 0.27 | 0.00 | 80 | 1011.9 |
| 20260507045910 | 54 | 203 | 3.0 | 4.0 | 0.00 | 0.27 | 0.00 | 81 | 1011.9 |
| 20260507045709 | 54 | 204 | 2.0 | 4.0 | 0.00 | 0.28 | 0.00 | 81 | 1011.8 |
| 20260507045515 | 54 | 203 | 2.0 | 3.0 | 0.00 | 0.28 | 0.00 | 82 | 1011.7 |
| 20260507045308 | 54 | 203 | 2.0 | 3.0 | 0.00 | 0.28 | 0.00 | 83 | 1011.7 |
| 20260507045107 | 54 | 203 | 2.0 | 3.0 | 0.00 | 0.28 | 0.00 | 84 | 1011.7 |
| 20260507044906 | 53 | 203 | 1.0 | 3.0 | 0.00 | 0.28 | 0.00 | 85 | 1011.7 |
| 20260507044706 | 53 | 203 | 0.0 | 3.0 | 0.00 | 0.28 | 0.00 | 85 | 1011.6 |
| 20260507044513 | 53 | 203 | 0.0 | 3.0 | 0.00 | 0.28 | 0.00 | 86 | 1011.7 |
| 20260507044303 | 53 | 203 | 1.0 | 3.0 | 0.00 | 0.29 | 0.00 | 86 | 1011.6 |
| 20260507044102 | 53 | 203 | 1.0 | 3.0 | 0.00 | 0.29 | 0.00 | 86 | 1011.5 |
| 20260507043909 | 53 | 203 | 1.0 | 3.0 | 0.00 | 0.30 | 0.00 | 86 | 1011.6 |
| 20260507043705 | 53 | 203 | 1.0 | 2.0 | 0.00 | 0.30 | 0.00 | 86 | 1011.5 |
| 20260507043507 | 53 | 203 | 0.0 | 2.0 | 0.00 | 0.30 | 0.00 | 86 | 1011.5 |
| 20260507043300 | 53 | 203 | 1.0 | 2.0 | 0.00 | 0.31 | 0.00 | 86 | 1011.5 |
| 20260507043059 | 53 | 203 | 1.0 | 3.0 | 0.00 | 0.31 | 0.00 | 86 | 1011.5 |
| 20260507042902 | 53 | 203 | 0.0 | 4.0 | 0.00 | 0.31 | 0.00 | 85 | 1011.5 |
| 20260507042659 | 53 | 203 | 0.0 | 4.0 | 0.00 | 0.32 | 0.00 | 85 | 1011.5 |
| 20260507042458 | 53 | 203 | 0.0 | 4.0 | 0.00 | 0.33 | 0.00 | 85 | 1011.4 |
| 20260507042259 | 53 | 203 | 1.0 | 4.0 | 0.00 | 0.35 | 0.00 | 85 | 1011.4 |
| 20260507042057 | 53 | 203 | 2.0 | 4.0 | 0.00 | 0.35 | 0.00 | 85 | 1011.4 |
| 20260507041859 | 53 | 262 | 2.0 | 4.0 | 0.00 | 0.36 | 0.00 | 85 | 1011.4 |
| 20260507041658 | 53 | 264 | 3.0 | 4.0 | 0.00 | 0.38 | 0.00 | 85 | 1011.4 |
| 20260507041457 | 53 | 264 | 2.0 | 4.0 | 0.00 | 0.39 | 0.00 | 85 | 1011.5 |
| 20260507041257 | 53 | 264 | 2.0 | 4.0 | 0.00 | 0.40 | 0.00 | 85 | 1011.5 |
| 20260507041055 | 53 | 264 | 1.0 | 4.0 | 0.00 | 0.42 | 0.00 | 85 | 1011.4 |
| 20260507040853 | 53 | 264 | 2.0 | 4.0 | 0.00 | 0.43 | 0.00 | 85 | 1011.4 |
| 20260507040651 | 53 | 264 | 2.0 | 4.0 | 0.00 | 0.44 | 0.00 | 85 | 1011.4 |
| 20260507040451 | 53 | 264 | 2.0 | 4.0 | 0.00 | 0.45 | 0.00 | 84 | 1011.4 |
| 20260507040250 | 53 | 264 | 1.0 | 4.0 | 0.00 | 0.46 | 0.00 | 85 | 1011.4 |
| 20260507040050 | 53 | 264 | 2.0 | 4.0 | 0.00 | 0.46 | 0.00 | 84 | 1011.4 |
| 20260507035853 | 53 | 264 | 2.0 | 4.0 | 0.00 | 0.47 | 0.00 | 84 | 1011.4 |
| 20260507035649 | 53 | 264 | 2.0 | 4.0 | 0.00 | 0.48 | 0.00 | 84 | 1011.3 |
| 20260507035450 | 54 | 264 | 3.0 | 4.0 | 0.00 | 0.49 | 0.00 | 84 | 1011.2 |
| 20260507035248 | 54 | 264 | 2.0 | 4.0 | 0.00 | 0.50 | 0.00 | 84 | 1011.2 |
| 20260507035047 | 54 | 264 | 0.0 | 3.0 | 0.00 | 0.50 | 0.00 | 84 | 1011.2 |
| 20260507034850 | 54 | 264 | 0.0 | 3.0 | 0.00 | 0.50 | 0.00 | 83 | 1011.2 |
| 20260507034652 | 54 | 264 | 0.0 | 4.0 | 0.00 | 0.50 | 0.00 | 83 | 1011.2 |
| 20260507034448 | 54 | 264 | 1.0 | 5.0 | 0.00 | 0.51 | 0.00 | 83 | 1011.2 |
| 20260507034246 | 54 | 264 | 1.0 | 5.0 | 0.00 | 0.51 | 0.00 | 83 | 1011.2 |
| 20260507034045 | 54 | 264 | 2.0 | 5.0 | 0.00 | 0.52 | 0.00 | 83 | 1011.1 |
| 20260507033846 | 54 | 264 | 2.0 | 5.0 | 0.00 | 0.52 | 0.00 | 82 | 1011.1 |
| 20260507033649 | 55 | 244 | 2.0 | 6.0 | 0.00 | 0.52 | 0.00 | 82 | 1011.2 |
| 20260507033443 | 55 | 227 | 1.0 | 6.0 | 0.00 | 0.52 | 0.00 | 82 | 1011.1 |
| 20260507033243 | 55 | 227 | 1.0 | 6.0 | 0.00 | 0.52 | 0.00 | 82 | 1011.1 |
| 20260507033041 | 55 | 227 | 2.0 | 6.0 | 0.00 | 0.52 | 0.00 | 82 | 1011.2 |
| 20260507032840 | 55 | 227 | 4.0 | 6.0 | 0.00 | 0.52 | 0.00 | 82 | 1011.1 |
| 20260507032639 | 55 | 224 | 5.0 | 5.0 | 0.00 | 0.52 | 0.00 | 82 | 1011.2 |
| 20260507032441 | 55 | 226 | 3.0 | 4.0 | 0.00 | 0.52 | 0.00 | 81 | 1011.1 |
| 20260507032239 | 55 | 226 | 2.0 | 3.0 | 0.00 | 0.52 | 0.00 | 81 | 1011.2 |
| 20260507032038 | 55 | 226 | 2.0 | 3.0 | 0.00 | 0.52 | 0.00 | 81 | 1011.2 |
| 20260507031839 | 55 | 226 | 1.0 | 4.0 | 0.00 | 0.52 | 0.00 | 81 | 1011.2 |
| 20260507031637 | 55 | 226 | 2.0 | 5.0 | 0.00 | 0.52 | 0.00 | 81 | 1011.1 |
| 20260507031438 | 55 | 226 | 1.0 | 5.0 | 0.00 | 0.52 | 0.00 | 81 | 1011.1 |
| 20260507031236 | 55 | 226 | 2.0 | 5.0 | 0.00 | 0.52 | 0.00 | 81 | 1011.0 |
| 20260507031040 | 55 | 226 | 2.0 | 5.0 | 0.00 | 0.52 | 0.00 | 81 | 1011.0 |
| 20260507030837 | 55 | 226 | 3.0 | 5.0 | 0.00 | 0.52 | 0.00 | 81 | 1011.0 |
| 20260507030636 | 55 | 224 | 2.0 | 5.0 | 0.00 | 0.52 | 0.00 | 81 | 1011.0 |
| 20260507030439 | 55 | 224 | 3.0 | 6.0 | 0.00 | 0.52 | 0.00 | 81 | 1011.0 |
| 20260507030236 | 55 | 226 | 4.0 | 6.0 | 0.00 | 0.52 | 0.00 | 81 | 1011.0 |
| 20260507030045 | 55 | 224 | 4.0 | 6.0 | 0.00 | 0.52 | 0.00 | 81 | 1011.0 |
| 20260507025832 | 55 | 220 | 4.0 | 6.0 | 0.00 | 0.52 | 0.00 | 81 | 1011.0 |
| 20260507025635 | 55 | 185 | 4.0 | 6.0 | 0.00 | 0.52 | 0.00 | 81 | 1011.0 |
| 20260507025432 | 55 | 230 | 4.0 | 6.0 | 0.00 | 0.52 | 0.00 | 81 | 1011.0 |
| 20260507025232 | 56 | 226 | 4.0 | 7.0 | 0.00 | 0.52 | 0.00 | 81 | 1011.1 |
| 20260507025030 | 56 | 220 | 4.0 | 9.0 | 0.00 | 0.53 | 0.00 | 80 | 1011.0 |
| 20260507024828 | 56 | 223 | 4.0 | 9.0 | 0.00 | 0.53 | 0.00 | 80 | 1011.0 |
| 20260507024626 | 56 | 223 | 4.0 | 9.0 | 0.00 | 0.53 | 0.00 | 80 | 1011.1 |
| 20260507024427 | 56 | 224 | 3.0 | 9.0 | 0.00 | 0.53 | 0.00 | 81 | 1011.0 |
| 20260507024228 | 56 | 224 | 4.0 | 6.0 | 0.00 | 0.53 | 0.00 | 81 | 1011.0 |
| 20260507024027 | 56 | 221 | 2.0 | 6.0 | 0.00 | 0.53 | 0.00 | 81 | 1011.0 |
| 20260507023824 | 56 | 227 | 2.0 | 6.0 | 0.00 | 0.54 | 0.00 | 81 | 1011.0 |
| 20260507023623 | 56 | 288 | 3.0 | 6.0 | 0.00 | 0.54 | 0.00 | 81 | 1010.9 |
| 20260507023226 | 56 | 203 | 2.0 | 5.0 | 0.00 | 0.55 | 0.00 | 80 | 1011.0 |
| 20260507023022 | 56 | 175 | 3.0 | 6.0 | 0.00 | 0.55 | 0.00 | 80 | 1010.9 |
| 20260507022820 | 56 | 228 | 2.0 | 6.0 | 0.00 | 0.55 | 0.00 | 79 | 1010.9 |
| 20260507022620 | 56 | 243 | 2.0 | 6.0 | 0.00 | 0.56 | 0.00 | 79 | 1011.0 |
| 20260507022419 | 56 | 226 | 3.0 | 6.0 | 0.00 | 0.56 | 0.00 | 79 | 1010.9 |
| 20260507022221 | 56 | 278 | 4.0 | 6.0 | 0.00 | 0.57 | 0.00 | 79 | 1010.9 |
| 20260507022020 | 56 | 233 | 4.0 | 11.0 | 0.00 | 0.57 | 0.00 | 79 | 1010.9 |
| 20260507021817 | 56 | 221 | 4.0 | 11.0 | 0.00 | 0.57 | 0.00 | 78 | 1010.9 |
| 20260507021617 | 57 | 202 | 4.0 | 11.0 | 0.00 | 0.57 | 0.00 | 78 | 1010.9 |
| 20260507021417 | 57 | 231 | 5.0 | 11.0 | 0.00 | 0.58 | 0.00 | 78 | 1010.9 |
| 20260507021218 | 57 | 213 | 5.0 | 11.0 | 0.00 | 0.59 | 0.00 | 78 | 1010.9 |
| 20260507021017 | 57 | 228 | 5.0 | 10.0 | 0.00 | 0.59 | 0.00 | 78 | 1010.8 |
| 20260507020813 | 57 | 226 | 7.0 | 10.0 | 0.00 | 0.60 | 0.00 | 78 | 1010.9 |
| 20260507020613 | 57 | 224 | 6.0 | 9.0 | 0.00 | 0.60 | 0.00 | 78 | 1011.0 |
| 20260507020420 | 57 | 224 | 5.0 | 7.0 | 0.00 | 0.60 | 0.00 | 78 | 1011.0 |
| 20260507020216 | 57 | 203 | 3.0 | 7.0 | 0.00 | 0.60 | 0.00 | 77 | 1010.9 |
| 20260507020038 | 57 | 310 | 4.0 | 11.0 | 0.00 | 0.60 | 0.00 | 77 | 1011.0 |
| 20260507015814 | 58 | 244 | 2.0 | 11.0 | 0.00 | 0.60 | 0.00 | 76 | 1010.9 |
| 20260507015609 | 58 | 261 | 2.0 | 11.0 | 0.00 | 0.60 | 0.00 | 76 | 1010.8 |
| 20260507015408 | 58 | 327 | 3.0 | 11.0 | 0.00 | 0.60 | 0.00 | 75 | 1010.9 |
| 20260507015207 | 58 | 248 | 5.0 | 11.0 | 0.00 | 0.60 | 0.00 | 75 | 1010.8 |
| 20260507015018 | 58 | 197 | 6.0 | 11.0 | 0.00 | 0.61 | 0.00 | 75 | 1010.8 |
| 20260507014807 | 58 | 226 | 6.0 | 11.0 | 0.00 | 0.61 | 0.00 | 74 | 1010.7 |
| 20260507014608 | 58 | 219 | 6.0 | 12.0 | 0.00 | 0.61 | 0.00 | 74 | 1010.8 |
| 20260507014405 | 58 | 228 | 5.0 | 12.0 | 0.00 | 0.61 | 0.00 | 75 | 1010.7 |
| 20260507014205 | 58 | 228 | 6.0 | 12.0 | 0.00 | 0.61 | 0.00 | 75 | 1010.7 |
| 20260507014013 | 58 | 200 | 6.0 | 12.0 | 0.00 | 0.61 | 0.00 | 75 | 1010.6 |
| 20260507013804 | 58 | 227 | 7.0 | 12.0 | 0.00 | 0.62 | 0.00 | 75 | 1010.6 |
| 20260507013608 | 58 | 186 | 6.0 | 13.0 | 0.00 | 0.62 | 0.00 | 75 | 1010.6 |
| 20260507013404 | 58 | 183 | 5.0 | 13.0 | 0.00 | 0.63 | 0.00 | 75 | 1010.7 |
| 20260507013201 | 58 | 206 | 5.0 | 13.0 | 0.00 | 0.63 | 0.00 | 75 | 1010.7 |
| 20260507013014 | 58 | 226 | 5.0 | 13.0 | 0.00 | 0.64 | 0.00 | 75 | 1010.7 |
| 20260507012802 | 58 | 188 | 7.0 | 13.0 | 0.00 | 0.65 | 0.00 | 75 | 1010.7 |
| 20260507012601 | 58 | 179 | 5.0 | 12.0 | 0.00 | 0.65 | 0.00 | 75 | 1010.7 |
| 20260507012401 | 58 | 200 | 5.0 | 12.0 | 0.00 | 0.66 | 0.00 | 75 | 1010.7 |
| 20260507012201 | 58 | 200 | 6.0 | 12.0 | 0.00 | 0.68 | 0.00 | 75 | 1010.6 |
| 20260507012001 | 58 | 217 | 7.0 | 12.0 | 0.00 | 0.68 | 0.00 | 75 | 1010.5 |
| 20260507011800 | 58 | 190 | 7.0 | 12.0 | 0.00 | 0.69 | 0.00 | 76 | 1010.6 |
| 20260507011559 | 58 | 196 | 4.0 | 14.0 | 0.00 | 0.69 | 0.00 | 77 | 1010.6 |
| 20260507011402 | 57 | 230 | 5.0 | 14.0 | 0.00 | 0.70 | 0.00 | 78 | 1010.6 |
| 20260507011137 | 57 | 223 | 2.0 | 14.0 | 0.00 | 0.71 | 0.00 | 79 | 1010.6 |
| 20260507010938 | 56 | 212 | 4.0 | 14.0 | 0.00 | 0.72 | 0.00 | 80 | 1010.7 |
| 20260507010738 | 56 | 226 | 1.0 | 4.0 | 0.00 | 0.72 | 0.00 | 80 | 1010.7 |
| 20260507010533 | 56 | 221 | 1.0 | 5.0 | 0.00 | 0.72 | 0.00 | 80 | 1010.6 |
| 20260507010330 | 56 | 221 | 1.0 | 6.0 | 0.00 | 0.72 | 0.00 | 81 | 1010.5 |
| 20260507010129 | 56 | 224 | 2.0 | 6.0 | 0.00 | 0.72 | 0.00 | 81 | 1010.5 |
| 20260507005931 | 56 | 224 | 2.0 | 6.0 | 0.00 | 0.73 | 0.00 | 81 | 1010.5 |
| 20260507005730 | 56 | 224 | 2.0 | 6.0 | 0.00 | 0.74 | 0.00 | 80 | 1010.6 |
| 20260507005534 | 56 | 226 | 4.0 | 6.0 | 0.00 | 0.76 | 0.00 | 80 | 1010.6 |
| 20260507005326 | 56 | 206 | 3.0 | 6.0 | 0.00 | 0.76 | 0.00 | 80 | 1010.6 |
| 20260507005128 | 56 | 212 | 4.0 | 6.0 | 0.00 | 0.77 | 0.00 | 80 | 1010.6 |
| 20260507004930 | 56 | 220 | 3.0 | 6.0 | 0.00 | 0.79 | 0.00 | 79 | 1010.7 |
| 20260507004725 | 57 | 226 | 4.0 | 6.0 | 0.00 | 0.80 | 0.00 | 79 | 1010.7 |
| 20260507004524 | 57 | 259 | 4.0 | 6.0 | 0.00 | 0.80 | 0.00 | 79 | 1010.7 |
| 20260507004323 | 57 | 264 | 4.0 | 6.0 | 0.00 | 0.81 | 0.00 | 79 | 1010.7 |
| 20260507004123 | 56 | 264 | 3.0 | 5.0 | 0.00 | 0.82 | 0.00 | 79 | 1010.7 |
| 20260507003922 | 56 | 276 | 1.0 | 6.0 | 0.00 | 0.83 | 0.00 | 79 | 1010.7 |
| 20260507003724 | 56 | 276 | 3.0 | 6.0 | 0.00 | 0.83 | 0.00 | 79 | 1010.7 |
| 20260507003520 | 56 | 245 | 3.0 | 6.0 | 0.00 | 0.83 | 0.00 | 80 | 1010.7 |
| 20260507003319 | 56 | 243 | 3.0 | 6.0 | 0.00 | 0.84 | 0.00 | 80 | 1010.8 |
| 20260507003118 | 56 | 243 | 4.0 | 6.0 | 0.00 | 0.85 | 0.00 | 80 | 1010.8 |
| 20260507002923 | 56 | 231 | 3.0 | 5.0 | 0.00 | 0.85 | 0.00 | 79 | 1010.8 |
| 20260507002716 | 57 | 231 | 3.0 | 5.0 | 0.00 | 0.86 | 0.00 | 79 | 1010.7 |
| 20260507002519 | 57 | 230 | 3.0 | 5.0 | 0.00 | 0.86 | 0.00 | 79 | 1010.8 |
| 20260507002316 | 57 | 230 | 4.0 | 6.0 | 0.00 | 0.86 | 0.00 | 79 | 1010.8 |
| 20260507002114 | 57 | 228 | 3.0 | 6.0 | 0.00 | 0.87 | 0.00 | 79 | 1010.7 |
| 20260507001924 | 57 | 228 | 3.0 | 7.0 | 0.00 | 0.87 | 0.00 | 79 | 1010.7 |
| 20260507001713 | 57 | 226 | 4.0 | 7.0 | 0.00 | 0.87 | 0.00 | 79 | 1010.7 |
| 20260507001518 | 57 | 226 | 5.0 | 7.0 | 0.00 | 0.87 | 0.00 | 79 | 1010.7 |
| 20260507001312 | 57 | 226 | 4.0 | 7.0 | 0.00 | 0.87 | 0.00 | 79 | 1010.7 |
| 20260507001111 | 57 | 227 | 5.0 | 7.0 | 0.00 | 0.87 | 0.00 | 79 | 1010.8 |
| 20260507000916 | 57 | 209 | 4.0 | 6.0 | 0.00 | 0.87 | 0.00 | 79 | 1010.8 |
| 20260507000715 | 56 | 207 | 4.0 | 6.0 | 0.00 | 0.87 | 0.00 | 79 | 1010.8 |
| 20260507000520 | 56 | 206 | 4.0 | 5.0 | 0.00 | 0.87 | 0.00 | 80 | 1010.8 |
| 20260507000314 | 56 | 206 | 2.0 | 4.0 | 0.00 | 0.87 | 0.00 | 80 | 1010.9 |
| 20260507000109 | 56 | 206 | 2.0 | 4.0 | 0.00 | 0.87 | 0.00 | 80 | 1010.9 |
| 20260506235916 | 56 | 206 | 2.0 | 4.0 | 0.00 | 0.87 | 0.00 | 80 | 1010.8 |
| 20260506235709 | 56 | 206 | 3.0 | 4.0 | 0.00 | 0.87 | 0.00 | 79 | 1010.8 |
| 20260506235515 | 56 | 206 | 2.0 | 3.0 | 0.00 | 0.87 | 0.00 | 79 | 1010.8 |
| 20260506235307 | 56 | 206 | 2.0 | 3.0 | 0.00 | 0.87 | 0.00 | 79 | 1010.8 |
| 20260506235105 | 56 | 206 | 2.0 | 3.0 | 0.00 | 0.87 | 0.00 | 79 | 1010.7 |
| 20260506234909 | 56 | 206 | 1.0 | 4.0 | 0.00 | 0.87 | 0.00 | 79 | 1010.7 |
| 20260506234703 | 57 | 206 | 2.0 | 6.0 | 0.00 | 0.87 | 0.00 | 79 | 1010.7 |
| 20260506234515 | 57 | 206 | 1.0 | 6.0 | 0.00 | 0.87 | 0.00 | 79 | 1010.8 |
| 20260506234309 | 57 | 206 | 2.0 | 6.0 | 0.00 | 0.88 | 0.00 | 79 | 1010.8 |
| 20260506234107 | 57 | 206 | 2.0 | 6.0 | 0.00 | 0.88 | 0.00 | 78 | 1010.7 |
| 20260506233901 | 57 | 204 | 3.0 | 6.0 | 0.00 | 0.89 | 0.00 | 79 | 1010.7 |
| 20260506233656 | 57 | 202 | 2.0 | 4.0 | 0.00 | 0.89 | 0.00 | 78 | 1010.6 |
| 20260506233456 | 57 | 202 | 2.0 | 4.0 | 0.00 | 0.89 | 0.00 | 78 | 1010.8 |
| 20260506233257 | 57 | 202 | 2.0 | 5.0 | 0.00 | 0.89 | 0.00 | 78 | 1010.9 |
| 20260506233057 | 57 | 202 | 2.0 | 5.0 | 0.00 | 0.89 | 0.00 | 78 | 1010.8 |
| 20260506232854 | 57 | 202 | 2.0 | 5.0 | 0.00 | 0.90 | 0.00 | 77 | 1010.8 |
| 20260506232654 | 57 | 202 | 3.0 | 5.0 | 0.00 | 0.90 | 0.00 | 77 | 1010.8 |
| 20260506232451 | 58 | 202 | 3.0 | 5.0 | 0.00 | 0.90 | 0.00 | 77 | 1010.9 |
| 20260506232250 | 58 | 202 | 3.0 | 5.0 | 0.00 | 0.90 | 0.00 | 76 | 1010.8 |
| 20260506232051 | 58 | 200 | 2.0 | 4.0 | 0.00 | 0.90 | 0.00 | 76 | 1010.7 |
| 20260506231850 | 58 | 200 | 2.0 | 4.0 | 0.00 | 0.90 | 0.00 | 76 | 1010.8 |
| 20260506231650 | 58 | 200 | 2.0 | 4.0 | 0.00 | 0.90 | 0.00 | 75 | 1010.8 |
| 20260506231450 | 58 | 200 | 2.0 | 4.0 | 0.00 | 0.90 | 0.00 | 75 | 1010.8 |
| 20260506231250 | 58 | 200 | 2.0 | 4.0 | 0.00 | 0.90 | 0.00 | 75 | 1010.9 |
| 20260506231037 | 58 | 200 | 2.0 | 4.0 | 0.00 | 0.90 | 0.00 | 74 | 1010.9 |
| 20260506230836 | 59 | 200 | 2.0 | 4.0 | 0.00 | 0.90 | 0.00 | 74 | 1010.9 |
| 20260506230636 | 59 | 200 | 2.0 | 5.0 | 0.00 | 0.90 | 0.00 | 73 | 1011.0 |
| 20260506230434 | 59 | 200 | 2.0 | 5.0 | 0.00 | 0.90 | 0.00 | 73 | 1010.9 |
| 20260506230237 | 59 | 200 | 2.0 | 6.0 | 0.00 | 0.90 | 0.00 | 72 | 1010.9 |
| 20260506230044 | 59 | 200 | 2.0 | 6.0 | 0.00 | 0.90 | 0.00 | 72 | 1010.8 |
| 20260506225836 | 59 | 196 | 3.0 | 6.0 | 0.00 | 0.90 | 0.00 | 71 | 1010.8 |
| 20260506225632 | 59 | 196 | 4.0 | 6.0 | 0.00 | 0.90 | 0.00 | 71 | 1010.9 |
| 20260506225430 | 59 | 204 | 4.0 | 6.0 | 0.00 | 0.90 | 0.00 | 71 | 1011.0 |
| 20260506225227 | 59 | 214 | 2.0 | 5.0 | 0.00 | 0.90 | 0.00 | 71 | 1010.9 |
| 20260506225031 | 59 | 214 | 3.0 | 5.0 | 0.00 | 0.90 | 0.00 | 71 | 1010.9 |
| 20260506224826 | 59 | 216 | 4.0 | 6.0 | 0.00 | 0.90 | 0.00 | 72 | 1010.9 |
| 20260506224626 | 59 | 216 | 3.0 | 6.0 | 0.00 | 0.90 | 0.00 | 72 | 1010.8 |
| 20260506224433 | 59 | 217 | 3.0 | 6.0 | 0.00 | 0.90 | 0.00 | 72 | 1010.9 |
| 20260506224225 | 60 | 217 | 3.0 | 6.0 | 0.00 | 0.90 | 0.00 | 71 | 1010.9 |
| 20260506224026 | 60 | 217 | 3.0 | 6.0 | 0.00 | 0.90 | 0.00 | 71 | 1010.9 |
| 20260506223822 | 60 | 217 | 2.0 | 6.0 | 0.00 | 0.90 | 0.00 | 71 | 1010.8 |
| 20260506223623 | 60 | 219 | 4.0 | 6.0 | 0.00 | 0.90 | 0.00 | 70 | 1010.8 |
| 20260506223423 | 60 | 202 | 2.0 | 5.0 | 0.00 | 0.90 | 0.00 | 70 | 1010.9 |
| 20260506223233 | 60 | 200 | 3.0 | 5.0 | 0.00 | 0.90 | 0.00 | 70 | 1010.8 |
| 20260506223023 | 60 | 203 | 2.0 | 6.0 | 0.00 | 0.90 | 0.00 | 70 | 1010.8 |
| 20260506222818 | 60 | 202 | 2.0 | 6.0 | 0.00 | 0.90 | 0.00 | 71 | 1010.8 |
| 20260506222618 | 60 | 199 | 3.0 | 6.0 | 0.00 | 0.90 | 0.00 | 71 | 1010.9 |
| 20260506222417 | 60 | 199 | 3.0 | 7.0 | 0.00 | 0.90 | 0.00 | 71 | 1010.9 |
| 20260506222218 | 60 | 195 | 4.0 | 9.0 | 0.00 | 0.90 | 0.00 | 71 | 1010.9 |
| 20260506222023 | 60 | 196 | 3.0 | 9.0 | 0.00 | 0.90 | 0.00 | 71 | 1010.8 |
| 20260506221811 | 60 | 197 | 2.0 | 9.0 | 0.00 | 0.90 | 0.00 | 71 | 1010.9 |
| 20260506221614 | 60 | 185 | 4.0 | 9.0 | 0.00 | 0.90 | 0.00 | 70 | 1010.9 |
| 20260506221411 | 60 | 202 | 4.0 | 10.0 | 0.00 | 0.90 | 0.00 | 71 | 1010.9 |
| 20260506221221 | 60 | 213 | 5.0 | 11.0 | 0.00 | 0.90 | 0.00 | 70 | 1010.8 |
| 20260506221025 | 60 | 207 | 5.0 | 11.0 | 0.00 | 0.90 | 0.00 | 70 | 1010.9 |
| 20260506220813 | 60 | 216 | 6.0 | 11.0 | 0.00 | 0.90 | 0.00 | 70 | 1010.9 |
| 20260506220614 | 60 | 243 | 7.0 | 11.0 | 0.00 | 0.90 | 0.00 | 69 | 1010.8 |
| 20260506220417 | 60 | 197 | 8.0 | 11.0 | 0.00 | 0.90 | 0.00 | 69 | 1010.7 |
| 20260506220218 | 61 | 258 | 5.0 | 11.0 | 0.00 | 0.90 | 0.00 | 68 | 1010.8 |
| 20260506220047 | 61 | 278 | 6.0 | 11.0 | 0.00 | 0.90 | 0.00 | 67 | 1010.8 |
| 20260506215813 | 62 | 290 | 6.0 | 11.0 | 0.00 | 0.90 | 0.90 | 65 | 1010.7 |
| 20260506215613 | 62 | 234 | 6.0 | 9.0 | 0.00 | 0.90 | 0.90 | 64 | 1010.6 |
| 20260506215412 | 62 | 180 | 4.0 | 7.0 | 0.00 | 0.90 | 0.90 | 64 | 1010.5 |
| 20260506215216 | 62 | 209 | 3.0 | 9.0 | 0.00 | 0.90 | 0.90 | 64 | 1010.4 |
| 20260506215025 | 62 | 212 | 3.0 | 14.0 | 0.00 | 0.90 | 0.90 | 64 | 1010.4 |
| 20260506214810 | 62 | 183 | 4.0 | 14.0 | 0.00 | 0.90 | 0.90 | 63 | 1010.4 |
| 20260506214611 | 62 | 182 | 4.0 | 14.0 | 0.00 | 0.90 | 0.90 | 63 | 1010.4 |
| 20260506214412 | 62 | 240 | 4.0 | 14.0 | 0.00 | 0.90 | 0.90 | 63 | 1010.4 |
| 20260506214213 | 62 | 227 | 4.0 | 14.0 | 0.00 | 0.90 | 0.90 | 63 | 1010.4 |
| 20260506214020 | 62 | 196 | 3.0 | 9.0 | 0.00 | 0.90 | 0.90 | 63 | 1010.4 |
| 20260506213812 | 62 | 200 | 3.0 | 9.0 | 0.00 | 0.90 | 0.90 | 63 | 1010.3 |
| 20260506213610 | 62 | 151 | 4.0 | 9.0 | 0.00 | 0.90 | 0.90 | 63 | 1010.4 |
| 20260506213413 | 62 | 192 | 4.0 | 5.0 | 0.00 | 0.90 | 0.90 | 64 | 1010.3 |
| 20260506213214 | 62 | 151 | 3.0 | 9.0 | 0.00 | 0.90 | 0.90 | 65 | 1010.4 |
| 20260506213021 | 61 | 189 | 1.0 | 9.0 | 0.00 | 0.90 | 0.90 | 65 | 1010.3 |
| 20260506212813 | 61 | 178 | 1.0 | 9.0 | 0.00 | 0.90 | 0.90 | 65 | 1010.3 |
| 20260506212611 | 61 | 164 | 2.0 | 9.0 | 0.00 | 0.90 | 0.90 | 66 | 1010.4 |
| 20260506212415 | 61 | 221 | 4.0 | 9.0 | 0.00 | 0.90 | 0.90 | 66 | 1010.4 |
| 20260506212216 | 60 | 224 | 3.0 | 7.0 | 0.00 | 0.90 | 0.90 | 67 | 1010.3 |
| 20260506212023 | 60 | 233 | 3.0 | 7.0 | 0.00 | 0.90 | 0.90 | 67 | 1010.3 |
| 20260506211811 | 60 | 199 | 2.0 | 12.0 | 0.00 | 0.90 | 0.90 | 68 | 1010.4 |
| 20260506211610 | 60 | 196 | 3.0 | 12.0 | 0.00 | 0.90 | 0.90 | 68 | 1010.4 |
| 20260506211412 | 60 | 152 | 3.0 | 12.0 | 0.00 | 0.90 | 0.90 | 69 | 1010.4 |
| 20260506211214 | 60 | 223 | 2.0 | 12.0 | 0.00 | 0.90 | 0.90 | 69 | 1010.4 |
| 20260506211019 | 60 | 223 | 3.0 | 12.0 | 0.00 | 0.90 | 0.90 | 69 | 1010.4 |
| 20260506210812 | 60 | 235 | 2.0 | 5.0 | 0.00 | 0.90 | 0.90 | 70 | 1010.4 |
| 20260506210610 | 60 | 235 | 2.0 | 5.0 | 0.00 | 0.90 | 0.90 | 70 | 1010.5 |
| 20260506210411 | 60 | 235 | 3.0 | 5.0 | 0.00 | 0.90 | 0.90 | 70 | 1010.5 |
| 20260506210213 | 60 | 235 | 2.0 | 4.0 | 0.00 | 0.90 | 0.90 | 70 | 1010.5 |
| 20260506210038 | 60 | 235 | 3.0 | 4.0 | 0.00 | 0.90 | 0.90 | 70 | 1010.5 |
| 20260506205811 | 60 | 235 | 1.0 | 4.0 | 0.00 | 0.90 | 0.90 | 70 | 1010.5 |
| 20260506205614 | 60 | 235 | 2.0 | 4.0 | 0.00 | 0.90 | 0.90 | 69 | 1010.4 |
| 20260506205412 | 60 | 235 | 2.0 | 4.0 | 0.00 | 0.90 | 0.90 | 69 | 1010.5 |
| 20260506205213 | 60 | 235 | 2.0 | 3.0 | 0.00 | 0.90 | 0.90 | 69 | 1010.3 |
| 20260506205020 | 61 | 235 | 1.0 | 4.0 | 0.00 | 0.90 | 0.90 | 68 | 1010.3 |
| 20260506204812 | 61 | 235 | 1.0 | 4.0 | 0.00 | 0.90 | 0.90 | 67 | 1010.3 |
| 20260506204613 | 61 | 235 | 1.0 | 5.0 | 0.00 | 0.90 | 0.90 | 67 | 1010.3 |
| 20260506204412 | 61 | 235 | 1.0 | 7.0 | 0.00 | 0.90 | 0.90 | 67 | 1010.2 |
| 20260506204217 | 61 | 235 | 1.0 | 7.0 | 0.00 | 0.90 | 0.90 | 66 | 1010.2 |
| 20260506204032 | 62 | 235 | 3.0 | 7.0 | 0.00 | 0.90 | 0.90 | 66 | 1010.2 |
| 20260506203812 | 62 | 235 | 3.0 | 7.0 | 0.00 | 0.90 | 0.90 | 65 | 1010.2 |
| 20260506203613 | 62 | 220 | 4.0 | 7.0 | 0.00 | 0.90 | 0.90 | 64 | 1010.2 |
| 20260506203411 | 62 | 226 | 3.0 | 7.0 | 0.00 | 0.90 | 0.90 | 63 | 1010.2 |
| 20260506203213 | 62 | 197 | 2.0 | 7.0 | 0.00 | 0.90 | 0.90 | 62 | 1010.1 |
| 20260506203024 | 62 | 158 | 3.0 | 7.0 | 0.00 | 0.90 | 0.90 | 61 | 1010.1 |
| 20260506202812 | 62 | 186 | 0.0 | 5.0 | 0.00 | 0.90 | 0.90 | 61 | 1010.2 |
| 20260506202611 | 62 | 186 | 2.0 | 5.0 | 0.00 | 0.90 | 0.90 | 61 | 1010.1 |
| 20260506202410 | 62 | 217 | 2.0 | 5.0 | 0.00 | 0.90 | 0.90 | 61 | 1010.1 |
| 20260506202225 | 62 | 206 | 3.0 | 5.0 | 0.00 | 0.90 | 0.90 | 61 | 1010.2 |
| 20260506202027 | 62 | 235 | 3.0 | 5.0 | 0.00 | 0.90 | 0.90 | 60 | 1010.1 |
| 20260506201811 | 62 | 226 | 3.0 | 5.0 | 0.00 | 0.90 | 0.90 | 60 | 1010.0 |
| 20260506201615 | 62 | 195 | 1.0 | 4.0 | 0.00 | 0.90 | 0.90 | 61 | 1010.0 |
| 20260506201409 | 62 | 195 | 2.0 | 6.0 | 0.00 | 0.90 | 0.90 | 61 | 1010.0 |
| 20260506201203 | 63 | 209 | 1.0 | 6.0 | 0.00 | 0.90 | 0.90 | 61 | 1009.9 |
| 20260506201019 | 63 | 209 | 2.0 | 6.0 | 0.00 | 0.90 | 0.90 | 60 | 1009.9 |
| 20260506200806 | 63 | 212 | 3.0 | 6.0 | 0.00 | 0.90 | 0.90 | 60 | 1009.9 |
| 20260506200611 | 63 | 220 | 4.0 | 6.0 | 0.00 | 0.90 | 0.90 | 59 | 1009.8 |
| 20260506200406 | 63 | 213 | 1.0 | 6.0 | 0.00 | 0.90 | 0.90 | 59 | 1009.8 |
| 20260506200204 | 63 | 231 | 4.0 | 6.0 | 0.00 | 0.90 | 0.90 | 59 | 1009.8 |
| 20260506200044 | 63 | 207 | 3.0 | 6.0 | 0.00 | 0.90 | 0.90 | 58 | 1009.8 |
| 20260506195804 | 63 | 199 | 2.0 | 6.0 | 0.00 | 0.90 | 0.90 | 58 | 1009.8 |
| 20260506195607 | 64 | 186 | 3.0 | 6.0 | 0.00 | 0.90 | 0.90 | 58 | 1009.7 |
| 20260506195401 | 64 | 228 | 3.0 | 10.0 | 0.00 | 0.90 | 0.90 | 58 | 1009.8 |
| 20260506195204 | 64 | 243 | 4.0 | 10.0 | 0.00 | 0.90 | 0.90 | 57 | 1009.7 |
| 20260506195001 | 64 | 212 | 3.0 | 10.0 | 0.00 | 0.90 | 0.90 | 57 | 1009.7 |
| 20260506194801 | 64 | 228 | 4.0 | 10.0 | 0.00 | 0.90 | 0.90 | 57 | 1009.7 |
| 20260506194608 | 64 | 223 | 4.0 | 10.0 | 0.00 | 0.90 | 0.90 | 57 | 1009.6 |
| 20260506194401 | 64 | 206 | 3.0 | 7.0 | 0.00 | 0.90 | 0.90 | 57 | 1009.7 |
| 20260506194200 | 64 | 206 | 4.0 | 9.0 | 0.00 | 0.90 | 0.90 | 56 | 1009.6 |
| 20260506193959 | 64 | 237 | 2.0 | 9.0 | 0.00 | 0.90 | 0.90 | 57 | 1009.6 |
| 20260506193759 | 64 | 219 | 4.0 | 10.0 | 0.00 | 0.90 | 0.90 | 56 | 1009.5 |
| 20260506193601 | 64 | 231 | 4.0 | 10.0 | 0.00 | 0.90 | 0.90 | 56 | 1009.4 |
| 20260506193359 | 64 | 212 | 3.0 | 10.0 | 0.00 | 0.90 | 0.90 | 56 | 1009.4 |
| 20260506193158 | 64 | 219 | 3.0 | 10.0 | 0.00 | 0.90 | 0.90 | 56 | 1009.4 |
| 20260506192957 | 64 | 182 | 5.0 | 11.0 | 0.00 | 0.90 | 0.90 | 56 | 1009.3 |
| 20260506192756 | 64 | 217 | 3.0 | 11.0 | 0.00 | 0.90 | 0.90 | 56 | 1009.3 |
| 20260506192600 | 65 | 234 | 3.0 | 11.0 | 0.00 | 0.90 | 0.90 | 55 | 1009.2 |
| 20260506192356 | 65 | 137 | 4.0 | 11.0 | 0.00 | 0.90 | 0.90 | 55 | 1009.2 |
| 20260506192156 | 65 | 214 | 6.0 | 11.0 | 0.00 | 0.90 | 0.90 | 55 | 1009.2 |
| 20260506191956 | 65 | 176 | 4.0 | 9.0 | 0.00 | 0.90 | 0.90 | 55 | 1009.1 |